Вернуться в каталог

JILIN-1 GAOFEN 03D-48

АктивенНаукаSSO
NORAD 54695·PAYLOAD·🇨🇳 China
Это название спутника еще не подтверждено официальными источниками.

Запущен Dec 9, 2022 с Yellow Sea Launch Area

Loading…

Ближайшие Пролёты (ближайшие 24 часа)

TLE

СвежийSource: Space-Track

Эпоха: Sep 14, 2026, 15:22 UTC

1 54695U 22167P   26257.64028310  .00009015  00000-0  25237-3 0  9990
2 54695  97.6952  71.1329 0006679 148.4626 211.7019 15.36866873209129

Отслеживайте JILIN-1 GAOFEN 03D-48 в реальном времени с AllMySat

Download on the App Store